Weather History for CYBW - March, 2013

Change the Weather History Date:

Monday, March 11, 2013

  Actual Average Record
Temperature  
Mean Temperature 26 °F -  
Max Temperature 32 °F 38 °F 64 °F (2005)
Min Temperature 19 °F 17 °F -14 °F (2009)
Degree Days  
Heating Degree Days 38    
Moisture  
Dew Point 11 °F    
Average Humidity 51    
Maximum Humidity 80    
Minimum Humidity 24    
Precipitation  
Precipitation 0.00 in - - ()
Sea Level Pressure  
Sea Level Pressure 30.30 in    
Wind  
Wind Speed 7 mph ()    
Max Wind Speed 16 mph    
Max Gust Speed 26 mph    
Visibility 15.0 miles    
Events Snow    
Averages and records for this station are not official NWS values.
T = Trace of Precipitation, MM = Missing Value Source: Averaged Metar Reports

Daily Weather History Graph

Daily Weather History Graph

Search for Another Location

Airport or City:

Trip Planner

Search our weather history database for the weather conditions in past years. The results will help you decide how hot, cold, wet, or windy it might be!

Date:

Astronomy

Mar. 11, 2013 Rise Set
Actual Time 7:59 AM MDT 7:36 PM MDT
Civil Twilight 7:26 AM MDT 8:09 PM MDT
Nautical Twilight 6:48 AM MDT 8:47 PM MDT
Astronomical Twilight 6:08 AM MDT 9:27 PM MDT
Moon 7:32 AM MDT (3/11) 7:59 PM MDT (3/11)
Length of Visible Light 12h 42m
Length of Day
11h 36m
Waning Crescent, 0% of the Moon is Illuminated
Mar 11
Waning Crescent
Mar 11
New
Mar 19
First Quarter
Mar 27
Full
Apr 2
Last Quarter

Hourly Weather History & Observations

Time (MDT) Temp. Windchill Dew Point Humidity Pressure Visibility Wind Dir Wind Speed Gust Speed Precip Events Conditions
5:00 AM 26.6 °F 22.6 °F 12.2 °F 55% 30.18 in 15.0 mi East 3.5 mph - N/A   Overcast
6:00 AM 26 °F - 11 °F 38% 30.20 in 15 mi NNW 3.5 mph - -   Overcast
6:00 AM 26.6 °F 22.6 °F 10.4 °F 51% 30.20 in 15.0 mi WNW 3.5 mph - N/A   Overcast
7:00 AM 24.8 °F 16.1 °F 15.8 °F 69% 30.23 in 15.0 mi NW 8.1 mph - N/A   Overcast
8:00 AM 24.8 °F 12.4 °F 12.2 °F 59% 30.27 in 10.0 mi WNW 15.0 mph 26.5 mph N/A Snow Light Snow
8:26 AM 24.8 °F 17.9 °F 14.0 °F 64% 30.27 in 30.0 mi WNW 5.8 mph - N/A   Overcast
9:00 AM 24.8 °F 17.9 °F 15.8 °F 69% 30.29 in 30.0 mi WNW 5.8 mph - N/A   Overcast
10:00 AM 26.6 °F 15.7 °F 10.4 °F 51% 30.30 in 30.0 mi NW 12.7 mph 20.7 mph N/A   Overcast
11:00 AM 28.4 °F 17.5 °F 6.8 °F 40% 30.30 in 30.0 mi NNW 13.8 mph 19.6 mph N/A   Mostly Cloudy
12:00 PM 29 °F - 6 °F 24% 30.32 in 28 mi North 12.7 mph - -   Partly Cloudy
12:00 PM 28.4 °F 17.0 °F 6.8 °F 40% 30.32 in 30.0 mi North 15.0 mph - N/A   Mostly Cloudy
1:00 PM 30.2 °F 20.8 °F 6.8 °F 37% 30.32 in 30.0 mi NNE 11.5 mph - N/A   Mostly Cloudy
2:00 PM 32.0 °F 25.6 °F 8.6 °F 38% 30.33 in 30.0 mi NE 6.9 mph - N/A   Mostly Cloudy
2:33 PM 30.2 °F 26.7 °F 6.8 °F 37% 30.34 in 30.0 mi ENE 3.5 mph - N/A   Mostly Cloudy
3:00 PM 32.0 °F 28.7 °F 6.8 °F 35% 30.33 in 30.0 mi West 3.5 mph - N/A   Mostly Cloudy
4:00 PM 30.2 °F 24.3 °F 6.8 °F 37% 30.33 in 30.0 mi South 5.8 mph - N/A   Partly Cloudy
5:00 PM 30.2 °F 24.3 °F 8.6 °F 40% 30.33 in 30.0 mi East 5.8 mph - N/A   Partly Cloudy
5:47 PM 30.2 °F 19.3 °F 12.2 °F 47% 30.33 in 30.0 mi SSE 15.0 mph - N/A   Partly Cloudy
6:00 PM 29 °F - 13 °F 37% 30.34 in 28 mi SSE 16.1 mph - -   Scattered Clouds
6:00 PM 28.4 °F 17.0 °F 14.0 °F 55% 30.33 in 30.0 mi South 15.0 mph - N/A   Partly Cloudy
7:00 PM 24.8 °F 13.4 °F 15.8 °F 69% 30.36 in 30.0 mi South 12.7 mph - N/A   Clear
8:00 PM 23.0 °F 11.7 °F 15.8 °F 74% 30.36 in 20.0 mi SSE 11.5 mph - N/A   Clear
9:00 PM 21.2 °F 10.1 °F 14.0 °F 74% 30.37 in 15.0 mi South 10.4 mph - N/A   Clear
10:00 PM 19.4 °F 7.2 °F 14.0 °F 80% 30.16 in 15.0 mi SSE 11.5 mph - N/A   Partly Cloudy